Time,TemperatureF,DewpointF,PressureIn,WindDirection,WindDirectionDegrees,WindSpeedMPH,WindSpeedGustMPH,Humidity,HourlyPrecipIn,Conditions,Clouds,dailyrainin,SoftwareType,DateUTC
2013-02-10 00:01:00,50.0,-99.9,30.32,NNE,15,3.0,4.0,-999,-99.99,,,-99.99,,2013-02-10 05:01:00,
2013-02-10 00:11:00,50.0,-99.9,30.32,NNE,24,3.0,3.0,-999,-99.99,,,-99.99,,2013-02-10 05:11:00,
2013-02-10 00:23:00,50.0,-99.9,30.32,NE,36,3.0,4.0,-999,-99.99,,,-99.99,,2013-02-10 05:23:00,
2013-02-10 00:32:00,51.0,-99.9,30.32,NE,48,6.0,8.0,-999,-99.99,,,-99.99,,2013-02-10 05:32:00,
2013-02-10 00:42:00,51.0,-99.9,30.32,ENE,67,6.0,8.0,-999,-99.99,,,-99.99,,2013-02-10 05:42:00,
2013-02-10 00:52:00,51.0,-99.9,30.32,ENE,65,7.0,9.0,-999,-99.99,,,-99.99,,2013-02-10 05:52:00,
2013-02-10 01:02:00,51.0,-99.9,30.32,ENE,64,7.0,8.0,-999,-99.99,,,-99.99,,2013-02-10 06:02:00,
2013-02-10 01:11:00,50.0,-99.9,30.32,ENE,65,6.0,7.0,-999,-99.99,,,-99.99,,2013-02-10 06:11:00,
2013-02-10 01:22:00,50.0,-99.9,30.32,ENE,68,5.0,7.0,-999,-99.99,,,-99.99,,2013-02-10 06:22:00,
2013-02-10 01:32:00,50.0,-99.9,30.32,ENE,61,6.0,7.0,-999,-99.99,,,-99.99,,2013-02-10 06:32:00,
2013-02-10 01:42:00,50.0,-99.9,30.32,NE,56,7.0,8.0,-999,-99.99,,,-99.99,,2013-02-10 06:42:00,
2013-02-10 01:52:00,50.0,-99.9,30.32,NE,51,7.0,8.0,-999,-99.99,,,-99.99,,2013-02-10 06:52:00,
2013-02-10 02:01:00,50.0,-99.9,30.32,NE,47,7.0,8.0,-999,-99.99,,,-99.99,,2013-02-10 07:01:00,
2013-02-10 02:11:00,50.0,-99.9,30.32,NE,45,6.0,8.0,-999,-99.99,,,-99.99,,2013-02-10 07:11:00,
2013-02-10 02:21:00,50.0,-99.9,30.32,NE,47,7.0,8.0,-999,-99.99,,,-99.99,,2013-02-10 07:21:00,
2013-02-10 02:32:00,51.0,-99.9,30.32,NE,46,7.0,9.0,-999,-99.99,,,-99.99,,2013-02-10 07:32:00,
2013-02-10 02:42:00,51.0,-99.9,30.32,NE,50,7.0,8.0,-999,-99.99,,,-99.99,,2013-02-10 07:42:00,
2013-02-10 02:52:00,51.0,-99.9,30.32,NE,47,7.0,9.0,-999,-99.99,,,-99.99,,2013-02-10 07:52:00,
2013-02-10 03:01:00,50.0,-99.9,30.31,NE,51,9.0,10.0,-999,-99.99,,,-99.99,,2013-02-10 08:01:00,
2013-02-10 03:11:00,51.0,-99.9,30.31,NE,53,9.0,10.0,-999,-99.99,,,-99.99,,2013-02-10 08:11:00,
2013-02-10 03:21:00,50.0,-99.9,30.30,NE,48,9.0,11.0,-999,-99.99,,,-99.99,,2013-02-10 08:21:00,
2013-02-10 03:32:00,50.0,-99.9,30.31,NE,39,9.0,11.0,-999,-99.99,,,-99.99,,2013-02-10 08:32:00,
2013-02-10 03:43:00,49.0,-99.9,30.31,NE,36,10.0,13.0,-999,-99.99,,,-99.99,,2013-02-10 08:43:00,
2013-02-10 03:52:00,49.0,-99.9,30.31,NE,37,10.0,11.0,-999,-99.99,,,-99.99,,2013-02-10 08:52:00,
2013-02-10 04:02:00,49.0,-99.9,30.31,NNE,33,11.0,12.0,-999,-99.99,,,-99.99,,2013-02-10 09:02:00,
2013-02-10 04:11:00,49.0,-99.9,30.31,NNE,33,11.0,12.0,-999,-99.99,,,-99.99,,2013-02-10 09:11:00,
2013-02-10 04:21:00,48.0,-99.9,30.31,NNE,32,10.0,13.0,-999,-99.99,,,-99.99,,2013-02-10 09:21:00,
2013-02-10 04:32:00,48.0,-99.9,30.32,NNE,26,10.0,12.0,-999,-99.99,,,-99.99,,2013-02-10 09:32:00,
2013-02-10 04:42:00,48.0,-99.9,30.32,NNE,22,8.0,10.0,-999,-99.99,,,-99.99,,2013-02-10 09:42:00,
2013-02-10 04:52:00,48.0,-99.9,30.32,NNE,22,8.0,10.0,-999,-99.99,,,-99.99,,2013-02-10 09:52:00,
2013-02-10 05:01:00,48.0,-99.9,30.32,NNE,27,9.0,10.0,-999,-99.99,,,-99.99,,2013-02-10 10:01:00,
2013-02-10 05:11:00,49.0,-99.9,30.32,NE,39,11.0,12.0,-999,-99.99,,,-99.99,,2013-02-10 10:11:00,
2013-02-10 05:21:00,49.0,-99.9,30.31,NE,38,10.0,13.0,-999,-99.99,,,-99.99,,2013-02-10 10:21:00,
2013-02-10 05:32:00,49.0,-99.9,30.32,NE,34,9.0,12.0,-999,-99.99,,,-99.99,,2013-02-10 10:32:00,
2013-02-10 05:42:00,49.0,-99.9,30.32,NNE,33,9.0,11.0,-999,-99.99,,,-99.99,,2013-02-10 10:42:00,
2013-02-10 05:52:00,48.0,-99.9,30.32,NNE,26,11.0,12.0,-999,-99.99,,,-99.99,,2013-02-10 10:52:00,
2013-02-10 06:01:00,48.0,-99.9,30.31,NNE,31,11.0,13.0,-999,-99.99,,,-99.99,,2013-02-10 11:01:00,
2013-02-10 06:11:00,47.0,-99.9,30.31,NNE,29,10.0,13.0,-999,-99.99,,,-99.99,,2013-02-10 11:11:00,
2013-02-10 06:22:00,47.0,-99.9,30.32,NNE,28,11.0,13.0,-999,-99.99,,,-99.99,,2013-02-10 11:22:00,
2013-02-10 06:32:00,47.0,-99.9,30.31,NE,35,11.0,14.0,-999,-99.99,,,-99.99,,2013-02-10 11:32:00,
2013-02-10 06:42:00,47.0,-99.9,30.32,NE,35,10.0,13.0,-999,-99.99,,,-99.99,,2013-02-10 11:42:00,
2013-02-10 06:52:00,48.0,-99.9,30.32,NNE,32,9.0,11.0,-999,-99.99,,,-99.99,,2013-02-10 11:52:00,
2013-02-10 07:02:00,48.0,-99.9,30.33,NE,34,6.0,10.0,-999,-99.99,,,-99.99,,2013-02-10 12:02:00,
2013-02-10 07:12:00,48.0,-99.9,30.34,NNE,16,7.0,9.0,-999,-99.99,,,-99.99,,2013-02-10 12:12:00,
2013-02-10 07:22:00,48.0,-99.9,30.35,North,10,8.0,10.0,-999,-99.99,,,-99.99,,2013-02-10 12:22:00,
2013-02-10 07:32:00,48.0,-99.9,30.35,NNE,12,9.0,12.0,-999,-99.99,,,-99.99,,2013-02-10 12:32:00,
2013-02-10 07:42:00,47.0,-99.9,30.35,NNE,23,9.0,11.0,-999,-99.99,,,-99.99,,2013-02-10 12:42:00,
2013-02-10 07:52:00,48.0,-99.9,30.35,NNE,26,9.0,10.0,-999,-99.99,,,-99.99,,2013-02-10 12:52:00,
2013-02-10 08:02:00,48.0,-99.9,30.35,NNE,20,9.0,11.0,-999,-99.99,,,-99.99,,2013-02-10 13:02:00,
2013-02-10 08:12:00,48.0,-99.9,30.36,NNE,16,8.0,10.0,-999,-99.99,,,-99.99,,2013-02-10 13:12:00,
2013-02-10 08:21:00,49.0,-99.9,30.36,NNE,18,9.0,10.0,-999,-99.99,,,-99.99,,2013-02-10 13:21:00,
2013-02-10 08:32:00,49.0,-99.9,30.37,NNE,14,10.0,10.0,-999,-99.99,,,-99.99,,2013-02-10 13:32:00,
2013-02-10 08:42:00,49.0,-99.9,30.37,NNE,16,8.0,10.0,-999,-99.99,,,-99.99,,2013-02-10 13:42:00,
2013-02-10 08:52:00,50.0,-99.9,30.37,NNE,13,9.0,10.0,-999,-99.99,,,-99.99,,2013-02-10 13:52:00,
2013-02-10 09:02:00,50.0,-99.9,30.37,North,11,8.0,10.0,-999,-99.99,,,-99.99,,2013-02-10 14:02:00,
2013-02-10 09:11:00,51.0,-99.9,30.38,North,10,7.0,9.0,-999,-99.99,,,-99.99,,2013-02-10 14:11:00,
2013-02-10 09:22:00,51.0,-99.9,30.38,North,10,8.0,10.0,-999,-99.99,,,-99.99,,2013-02-10 14:22:00,
2013-02-10 09:32:00,51.0,-99.9,30.38,NNE,13,10.0,11.0,-999,-99.99,,,-99.99,,2013-02-10 14:32:00,
2013-02-10 09:42:00,51.0,-99.9,30.38,NNE,13,9.0,11.0,-999,-99.99,,,-99.99,,2013-02-10 14:42:00,
2013-02-10 09:52:00,52.0,-99.9,30.38,NNE,17,9.0,11.0,-999,-99.99,,,-99.99,,2013-02-10 14:52:00,
2013-02-10 10:02:00,53.0,-99.9,30.37,NNE,20,10.0,13.0,-999,-99.99,,,-99.99,,2013-02-10 15:02:00,
2013-02-10 10:12:00,55.0,-99.9,30.37,NE,35,9.0,13.0,-999,-99.99,,,-99.99,,2013-02-10 15:12:00,
2013-02-10 10:22:00,55.0,-99.9,30.37,NE,40,10.0,13.0,-999,-99.99,,,-99.99,,2013-02-10 15:22:00,
2013-02-10 10:32:00,56.0,-99.9,30.37,NE,39,11.0,14.0,-999,-99.99,,,-99.99,,2013-02-10 15:32:00,
2013-02-10 10:42:00,56.0,-99.9,30.37,NE,48,11.0,14.0,-999,-99.99,,,-99.99,,2013-02-10 15:42:00,
2013-02-10 10:52:00,56.0,-99.9,30.38,NE,39,11.0,14.0,-999,-99.99,,,-99.99,,2013-02-10 15:52:00,
2013-02-10 11:02:00,56.0,-99.9,30.37,NE,42,13.0,17.0,-999,-99.99,,,-99.99,,2013-02-10 16:02:00,
2013-02-10 11:12:00,56.0,-99.9,30.36,NE,56,14.0,17.0,-999,-99.99,,,-99.99,,2013-02-10 16:12:00,
2013-02-10 11:22:00,56.0,-99.9,30.36,ENE,59,15.0,17.0,-999,-99.99,,,-99.99,,2013-02-10 16:22:00,
2013-02-10 11:32:00,56.0,-99.9,30.37,NE,50,13.0,17.0,-999,-99.99,,,-99.99,,2013-02-10 16:32:00,
2013-02-10 11:42:00,56.0,-99.9,30.36,NE,53,13.0,17.0,-999,-99.99,,,-99.99,,2013-02-10 16:42:00,
2013-02-10 11:52:00,56.0,-99.9,30.35,NE,53,14.0,19.0,-999,-99.99,,,-99.99,,2013-02-10 16:52:00,
2013-02-10 12:02:00,57.0,-99.9,30.36,NE,55,14.0,18.0,-999,-99.99,,,-99.99,,2013-02-10 17:02:00,
2013-02-10 12:12:00,58.0,-99.9,30.37,NE,48,12.0,17.0,-999,-99.99,,,-99.99,,2013-02-10 17:12:00,
2013-02-10 12:22:00,58.0,-99.9,30.37,NE,48,12.0,16.0,-999,-99.99,,,-99.99,,2013-02-10 17:22:00,
2013-02-10 12:32:00,59.0,-99.9,30.36,ENE,60,9.0,12.0,-999,-99.99,,,-99.99,,2013-02-10 17:32:00,
2013-02-10 12:42:00,59.0,-99.9,30.36,NE,46,11.0,14.0,-999,-99.99,,,-99.99,,2013-02-10 17:42:00,
2013-02-10 12:53:00,59.0,-99.9,30.36,ENE,62,10.0,15.0,-999,-99.99,,,-99.99,,2013-02-10 17:53:00,
2013-02-10 13:02:00,60.0,-99.9,30.35,ENE,66,12.0,16.0,-999,-99.99,,,-99.99,,2013-02-10 18:02:00,
2013-02-10 13:12:00,60.0,-99.9,30.34,ENE,66,12.0,16.0,-999,-99.99,,,-99.99,,2013-02-10 18:12:00,
2013-02-10 13:22:00,60.0,-99.9,30.33,ENE,75,13.0,16.0,-999,-99.99,,,-99.99,,2013-02-10 18:22:00,
2013-02-10 13:32:00,59.0,-99.9,30.33,ENE,67,12.0,17.0,-999,-99.99,,,-99.99,,2013-02-10 18:32:00,
2013-02-10 13:42:00,59.0,-99.9,30.32,ENE,65,12.0,15.0,-999,-99.99,,,-99.99,,2013-02-10 18:42:00,
2013-02-10 13:52:00,60.0,-99.9,30.32,ENE,68,12.0,16.0,-999,-99.99,,,-99.99,,2013-02-10 18:52:00,
2013-02-10 14:02:00,60.0,-99.9,30.32,ENE,66,12.0,16.0,-999,-99.99,,,-99.99,,2013-02-10 19:02:00,
2013-02-10 14:12:00,60.0,-99.9,30.32,ENE,73,14.0,18.0,-999,-99.99,,,-99.99,,2013-02-10 19:12:00,
2013-02-10 14:22:00,59.0,-99.9,30.31,ENE,73,13.0,17.0,-999,-99.99,,,-99.99,,2013-02-10 19:22:00,
2013-02-10 14:32:00,60.0,-99.9,30.31,ENE,63,16.0,18.0,-999,-99.99,,,-99.99,,2013-02-10 19:32:00,
2013-02-10 14:43:00,60.0,-99.9,30.31,ENE,69,15.0,17.0,-999,-99.99,,,-99.99,,2013-02-10 19:43:00,
2013-02-10 14:52:00,60.0,-99.9,30.30,ENE,63,15.0,17.0,-999,-99.99,,,-99.99,,2013-02-10 19:52:00,
2013-02-10 15:02:00,60.0,-99.9,30.29,ENE,73,17.0,19.0,-999,-99.99,,,-99.99,,2013-02-10 20:02:00,
2013-02-10 15:11:00,60.0,-99.9,30.28,ENE,57,16.0,19.0,-999,-99.99,,,-99.99,,2013-02-10 20:11:00,
2013-02-10 15:22:00,60.0,-99.9,30.28,NE,54,17.0,19.0,-999,-99.99,,,-99.99,,2013-02-10 20:22:00,
2013-02-10 15:32:00,60.0,-99.9,30.27,ENE,75,14.0,17.0,-999,-99.99,,,-99.99,,2013-02-10 20:32:00,
2013-02-10 15:42:00,59.0,-99.9,30.26,ENE,64,16.0,18.0,-999,-99.99,,,-99.99,,2013-02-10 20:42:00,
2013-02-10 15:53:00,59.0,-99.9,30.26,ENE,74,16.0,20.0,-999,-99.99,,,-99.99,,2013-02-10 20:53:00,
2013-02-10 16:03:00,59.0,-99.9,30.27,ENE,72,16.0,18.0,-999,-99.99,,,-99.99,,2013-02-10 21:03:00,
2013-02-10 16:12:00,59.0,-99.9,30.27,ENE,66,17.0,20.0,-999,-99.99,,,-99.99,,2013-02-10 21:12:00,
2013-02-10 16:22:00,58.0,-99.9,30.27,ENE,77,13.0,16.0,-999,-99.99,,,-99.99,,2013-02-10 21:22:00,
2013-02-10 16:32:00,58.0,-99.9,30.27,East,83,13.0,16.0,-999,-99.99,,,-99.99,,2013-02-10 21:32:00,
2013-02-10 16:42:00,57.0,-99.9,30.27,ENE,69,14.0,17.0,-999,-99.99,,,-99.99,,2013-02-10 21:42:00,
2013-02-10 16:52:00,57.0,-99.9,30.27,ENE,70,15.0,17.0,-999,-99.99,,,-99.99,,2013-02-10 21:52:00,
2013-02-10 17:02:00,57.0,-99.9,30.27,ENE,71,14.0,18.0,-999,-99.99,,,-99.99,,2013-02-10 22:02:00,
2013-02-10 17:12:00,57.0,-99.9,30.26,ENE,74,15.0,17.0,-999,-99.99,,,-99.99,,2013-02-10 22:12:00,
2013-02-10 17:22:00,57.0,-99.9,30.26,ENE,69,14.0,17.0,-999,-99.99,,,-99.99,,2013-02-10 22:22:00,
2013-02-10 17:32:00,57.0,-99.9,30.26,ENE,78,12.0,15.0,-999,-99.99,,,-99.99,,2013-02-10 22:32:00,
2013-02-10 17:42:00,57.0,-99.9,30.26,ENE,62,13.0,17.0,-999,-99.99,,,-99.99,,2013-02-10 22:42:00,
2013-02-10 17:53:00,57.0,-99.9,30.25,ENE,62,12.0,15.0,-999,-99.99,,,-99.99,,2013-02-10 22:53:00,
2013-02-10 18:02:00,57.0,-99.9,30.25,ENE,78,12.0,13.0,-999,-99.99,,,-99.99,,2013-02-10 23:02:00,
2013-02-10 18:12:00,57.0,-99.9,30.25,ENE,77,11.0,13.0,-999,-99.99,,,-99.99,,2013-02-10 23:12:00,
2013-02-10 18:22:00,57.0,-99.9,30.24,ENE,78,9.0,11.0,-999,-99.99,,,-99.99,,2013-02-10 23:22:00,
2013-02-10 18:32:00,57.0,-99.9,30.24,ENE,70,10.0,12.0,-999,-99.99,,,-99.99,,2013-02-10 23:32:00,
2013-02-10 18:42:00,56.0,-99.9,30.24,ENE,76,9.0,11.0,-999,-99.99,,,-99.99,,2013-02-10 23:42:00,
2013-02-10 18:52:00,56.0,-99.9,30.24,ENE,74,8.0,11.0,-999,-99.99,,,-99.99,,2013-02-10 23:52:00,
2013-02-10 19:02:00,56.0,-99.9,30.24,East,86,8.0,10.0,-999,-99.99,,,-99.99,,2013-02-11 00:02:00,
2013-02-10 19:11:00,56.0,-99.9,30.23,East,93,7.0,8.0,-999,-99.99,,,-99.99,,2013-02-11 00:11:00,
2013-02-10 19:22:00,56.0,-99.9,30.23,East,82,7.0,9.0,-999,-99.99,,,-99.99,,2013-02-11 00:22:00,
2013-02-10 19:32:00,56.0,-99.9,30.24,ENE,73,5.0,7.0,-999,-99.99,,,-99.99,,2013-02-11 00:32:00,
2013-02-10 19:42:00,56.0,-99.9,30.24,ENE,77,4.0,5.0,-999,-99.99,,,-99.99,,2013-02-11 00:42:00,
2013-02-10 19:52:00,56.0,-99.9,30.23,East,91,3.0,4.0,-999,-99.99,,,-99.99,,2013-02-11 00:52:00,
2013-02-10 20:02:00,56.0,-99.9,30.24,East,84,5.0,7.0,-999,-99.99,,,-99.99,,2013-02-11 01:02:00,
2013-02-10 20:11:00,56.0,-99.9,30.22,East,91,5.0,6.0,-999,-99.99,,,-99.99,,2013-02-11 01:11:00,
2013-02-10 20:22:00,57.0,-99.9,30.21,East,94,7.0,9.0,-999,-99.99,,,-99.99,,2013-02-11 01:22:00,
2013-02-10 20:32:00,58.0,-99.9,30.20,SE,129,8.0,9.0,-999,-99.99,,,-99.99,,2013-02-11 01:32:00,
2013-02-10 20:42:00,59.0,-99.9,30.21,SE,146,6.0,9.0,-999,-99.99,,,-99.99,,2013-02-11 01:42:00,
2013-02-10 20:52:00,61.0,-99.9,30.19,SSE,149,9.0,11.0,-999,-99.99,,,-99.99,,2013-02-11 01:52:00,
2013-02-10 21:01:00,62.0,-99.9,30.19,SSE,160,12.0,17.0,-999,-99.99,,,-99.99,,2013-02-11 02:01:00,
2013-02-10 21:11:00,62.0,-99.9,30.19,SSE,160,13.0,17.0,-999,-99.99,,,-99.99,,2013-02-11 02:11:00,
2013-02-10 21:21:00,62.0,-99.9,30.19,SSE,163,12.0,16.0,-999,-99.99,,,-99.99,,2013-02-11 02:21:00,
2013-02-10 21:32:00,62.0,-99.9,30.19,SSE,165,13.0,17.0,-999,-99.99,,,-99.99,,2013-02-11 02:32:00,
2013-02-10 21:42:00,62.0,-99.9,30.20,SSE,166,12.0,16.0,-999,-99.99,,,-99.99,,2013-02-11 02:42:00,
2013-02-10 21:52:00,62.0,-99.9,30.20,SSE,165,12.0,16.0,-999,-99.99,,,-99.99,,2013-02-11 02:52:00,
2013-02-10 22:02:00,62.0,-99.9,30.21,SSE,168,13.0,16.0,-999,-99.99,,,-99.99,,2013-02-11 03:02:00,
2013-02-10 22:11:00,62.0,-99.9,30.20,South,171,13.0,16.0,-999,-99.99,,,-99.99,,2013-02-11 03:11:00,
2013-02-10 22:22:00,63.0,-99.9,30.19,SSE,165,13.0,17.0,-999,-99.99,,,-99.99,,2013-02-11 03:22:00,
2013-02-10 22:32:00,63.0,-99.9,30.19,SSE,167,13.0,16.0,-999,-99.99,,,-99.99,,2013-02-11 03:32:00,
2013-02-10 22:42:00,62.0,-99.9,30.20,SSE,160,9.0,15.0,-999,-99.99,,,-99.99,,2013-02-11 03:42:00,
2013-02-10 22:52:00,62.0,-99.9,30.20,SSE,167,10.0,13.0,-999,-99.99,,,-99.99,,2013-02-11 03:52:00,
2013-02-10 23:02:00,62.0,-99.9,30.20,SSE,166,10.0,13.0,-999,-99.99,,,-99.99,,2013-02-11 04:02:00,
2013-02-10 23:11:00,62.0,-99.9,30.20,South,170,10.0,11.0,-999,-99.99,,,-99.99,,2013-02-11 04:11:00,
2013-02-10 23:22:00,61.0,-99.9,30.20,South,169,10.0,13.0,-999,-99.99,,,-99.99,,2013-02-11 04:22:00,
2013-02-10 23:32:00,61.0,-99.9,30.20,South,172,8.0,10.0,-999,-99.99,,,-99.99,,2013-02-11 04:32:00,
2013-02-10 23:42:00,61.0,-99.9,30.19,SSE,161,8.0,9.0,-999,-99.99,,,-99.99,,2013-02-11 04:42:00,
2013-02-10 23:52:00,61.0,-99.9,30.21,South,183,6.0,8.0,-999,-99.99,,,-99.99,,2013-02-11 04:52:00,